
11:56:20 AM 942 Tuesday, May 21, 2019  Message :- Start Log.....!!!

windowsName : Windows 10 Enterprise
version : 6.3
build : 18362
Product ID : 1814
64 Bit operating system? : Yes
===========================================Start==========================================
Caption : Intel64 Family 6 Model 142 Stepping 9
CreationClassName : Win32_Processor
CurrentClockSpeed : 2600
CurrentVoltage : 8
Manufacturer : GenuineIntel
MaxClockSpeed : 2701
Name : Intel(R) Core(TM) i5-7200U CPU @ 2.50GHz
NumberOfCores : 2
NumberOfLogicalProcessors : 4
PowerManagementSupported : False
Status : OK
=========================================END============================================

10:45:29 483 03 October 2019  Message :- Save call Start

10:45:38 30 03 October 2019  Message :- Start Log.....!!!

10:45:38 41 03 October 2019  Message :- Zip Start AD

10:45:38 197 03 October 2019  Message :- Zip End

10:45:47 742 03 October 2019  Message :- get Download paramenter 1st time

10:45:48 123 03 October 2019  Message :- start vishal task

10:45:49 75 03 October 2019  Message :- end vishal task

10:45:49 98 03 October 2019  Message :- first time download

10:45:49 103 03 October 2019  Message :-  Done version

10:45:49 107 03 October 2019  Message :-  start Port

10:45:49 129 03 October 2019  Message :-  Got Port

10:45:49 134 03 October 2019  Message :- start opening port

10:45:49 139 03 October 2019  Message :- port open 

10:45:49 143 03 October 2019  Message :- Done ctor, start event instialize

10:45:49 147 03 October 2019  Message :-  open call

10:45:49 164 03 October 2019  Message :- close hota open kela done 

10:45:49 169 03 October 2019  Message :-  open call end ,  start Port Done in PP3 class

10:45:49 199 03 October 2019  Message :-  sent 1st

10:45:49 404 03 October 2019  Message :-  Got 1

10:45:49 567 03 October 2019  Message :-  started sending Application

10:45:49 602 03 October 2019  Message :- 1st cha response 221

10:45:49 679 03 October 2019  Message :- 2st cha response 221

10:45:49 940 03 October 2019  Message :- Project cha response 221 Completed :) 

10:45:50 18 03 October 2019  Message :- port Exist and it is Closed

10:45:50 29 03 October 2019  Message :- End 100%

10:47:09 870 03 October 2019  Message :- Save call Start

10:47:10 213 03 October 2019  Message :- Start Log.....!!!

10:47:10 218 03 October 2019  Message :- Zip Start AD

10:47:10 302 03 October 2019  Message :- Zip End

10:47:19 517 03 October 2019  Message :- start opening port

10:47:19 521 03 October 2019  Message :- port open 

10:47:19 531 03 October 2019  Message :- close hota open kela done 

10:47:19 536 03 October 2019  Message :- port Exist and it is Closed

10:47:22 903 03 October 2019  Message :- Save call Start

10:47:23 149 03 October 2019  Message :- Start Log.....!!!

10:47:23 155 03 October 2019  Message :- Zip Start AD

10:47:23 238 03 October 2019  Message :- Zip End

10:47:27 222 03 October 2019  Message :- Save call Start

10:47:27 475 03 October 2019  Message :- Start Log.....!!!

10:47:27 480 03 October 2019  Message :- Zip Start AD

10:47:27 561 03 October 2019  Message :- Zip End

10:47:29 194 03 October 2019  Message :- get Download paramenter 1st time

10:47:29 554 03 October 2019  Message :- start vishal task

10:47:30 230 03 October 2019  Message :- end vishal task

10:47:30 262 03 October 2019  Message :- first time download

10:47:30 266 03 October 2019  Message :-  Done version

10:47:30 271 03 October 2019  Message :-  start Port

10:47:30 292 03 October 2019  Message :-  Got Port

10:47:30 298 03 October 2019  Message :- start opening port

10:47:30 303 03 October 2019  Message :- port open 

10:47:30 308 03 October 2019  Message :- Done ctor, start event instialize

10:47:30 313 03 October 2019  Message :-  open call

10:47:30 322 03 October 2019  Message :- close hota open kela done 

10:47:30 328 03 October 2019  Message :-  open call end ,  start Port Done in PP3 class

10:47:30 364 03 October 2019  Message :-  sent 1st

10:47:30 570 03 October 2019  Message :-  Got 1

10:47:30 719 03 October 2019  Message :-  started sending Application

10:47:30 745 03 October 2019  Message :- 1st cha response 221

10:47:30 822 03 October 2019  Message :- 2st cha response 221

10:47:31 83 03 October 2019  Message :- Project cha response 221 Completed :) 

10:47:31 162 03 October 2019  Message :- port Exist and it is Closed

10:47:31 168 03 October 2019  Message :- End 100%

10:48:18 782 03 October 2019  Message :- start opening port

10:48:18 787 03 October 2019  Message :- port open 

10:48:18 798 03 October 2019  Message :- close hota open kela done 

10:48:18 804 03 October 2019  Message :- port Exist and it is Closed

10:50:53 514 03 October 2019  Message :- Start Log.....!!!

10:50:54 521 03 October 2019  Message :- Save call Start

10:50:54 788 03 October 2019  Message :- Start Log.....!!!

10:50:54 793 03 October 2019  Message :- Zip Start AD

10:50:54 873 03 October 2019  Message :- Zip End

10:50:56 797 03 October 2019  Message :- get Download paramenter 1st time

10:50:57 190 03 October 2019  Message :- start vishal task

10:50:57 799 03 October 2019  Message :- end vishal task

10:50:57 830 03 October 2019  Message :- first time download

10:50:57 834 03 October 2019  Message :-  Done version

10:50:57 838 03 October 2019  Message :-  start Port

10:50:57 859 03 October 2019  Message :-  Got Port

10:50:57 863 03 October 2019  Message :- start opening port

10:50:57 867 03 October 2019  Message :- port open 

10:50:57 872 03 October 2019  Message :- Done ctor, start event instialize

10:50:57 876 03 October 2019  Message :-  open call

10:50:57 886 03 October 2019  Message :- close hota open kela done 

10:50:57 891 03 October 2019  Message :-  open call end ,  start Port Done in PP3 class

10:50:57 921 03 October 2019  Message :-  sent 1st

10:50:58 126 03 October 2019  Message :-  Got 1

10:50:58 304 03 October 2019  Message :- Start 0%

10:50:58 320 03 October 2019  Message :- pathvli ek

10:50:58 342 03 October 2019  Message :- 1st cha response 221

10:50:58 417 03 October 2019  Message :- 2st cha response 221

10:50:58 677 03 October 2019  Message :- Project cha response 221 Completed :) 

10:50:58 748 03 October 2019  Message :- port Exist and it is Closed

10:50:58 758 03 October 2019  Message :- End 100%

10:51:41 298 03 October 2019  Message :- Save call Start

10:51:41 571 03 October 2019  Message :- Start Log.....!!!

10:51:41 576 03 October 2019  Message :- Zip Start AD

10:51:41 662 03 October 2019  Message :- Zip End

10:51:43 108 03 October 2019  Message :- get Download paramenter 1st time

10:51:43 507 03 October 2019  Message :- start vishal task

10:51:44 174 03 October 2019  Message :- end vishal task

10:51:44 203 03 October 2019  Message :- first time download

10:51:44 207 03 October 2019  Message :-  Done version

10:51:44 212 03 October 2019  Message :-  start Port

10:51:44 230 03 October 2019  Message :-  Got Port

10:51:44 234 03 October 2019  Message :- start opening port

10:51:44 239 03 October 2019  Message :- port open 

10:51:44 243 03 October 2019  Message :- Done ctor, start event instialize

10:51:44 247 03 October 2019  Message :-  open call

10:51:44 258 03 October 2019  Message :- close hota open kela done 

10:51:44 263 03 October 2019  Message :-  open call end ,  start Port Done in PP3 class

10:51:44 292 03 October 2019  Message :-  sent 1st

10:51:44 497 03 October 2019  Message :-  Got 1

10:51:44 670 03 October 2019  Message :-  started sending Application

10:51:44 696 03 October 2019  Message :- 1st cha response 221

10:51:44 769 03 October 2019  Message :- 2st cha response 221

10:51:45 26 03 October 2019  Message :- Project cha response 221 Completed :) 

10:51:45 75 03 October 2019  Message :- port Exist and it is Closed

10:51:45 79 03 October 2019  Message :- End 100%

10:51:55 606 03 October 2019  Message :- start opening port

10:51:55 611 03 October 2019  Message :- port open 

10:51:55 622 03 October 2019  Message :- close hota open kela done 

10:51:55 627 03 October 2019  Message :- port Exist and it is Closed

10:52:40 719 03 October 2019  Message :- start opening port

10:52:40 725 03 October 2019  Message :- port open 

10:52:40 736 03 October 2019  Message :- close hota open kela done 

10:52:40 741 03 October 2019  Message :- port Exist and it is Closed

10:52:42 483 03 October 2019  Message :- Start Log.....!!!

10:54:50 282 03 October 2019  Message :- Start Log.....!!!

11:00:20 921 03 October 2019  Message :- Start Log.....!!!

11:00:23 382 03 October 2019  Message :- Start Log.....!!!

windowsName : Windows 10 Enterprise
version : 6.3
build : 18362
Product ID : 1814
64 Bit operating system? : Yes
===========================================Start==========================================
Caption : Intel64 Family 6 Model 142 Stepping 9
CreationClassName : Win32_Processor
CurrentClockSpeed : 2600
CurrentVoltage : 6
Manufacturer : GenuineIntel
MaxClockSpeed : 2701
Name : Intel(R) Core(TM) i5-7200U CPU @ 2.50GHz
NumberOfCores : 2
NumberOfLogicalProcessors : 4
PowerManagementSupported : False
Status : OK
=========================================END============================================

14:30:43 413 08 November 2019  Message :- Save call Start

14:30:44 89 08 November 2019  Message :- Start Log.....!!!

14:30:44 102 08 November 2019  Message :- Zip Start AD

14:30:44 190 08 November 2019  Message :- Zip End

14:30:48 414 08 November 2019  Message :- get Download paramenter 1st time

14:30:48 787 08 November 2019  Message :- start vishal task

14:30:49 855 08 November 2019  Message :- end vishal task

14:30:49 881 08 November 2019  Message :- first time download

14:30:49 887 08 November 2019  Message :-  Done version

14:30:49 893 08 November 2019  Message :-  start Port

14:30:49 918 08 November 2019  Message :-  Not found device

14:30:52 390 08 November 2019  Message :- get Download paramenter second time 

14:30:52 418 08 November 2019  Message :- second time download

14:30:52 424 08 November 2019  Message :-  Done version

14:30:52 429 08 November 2019  Message :-  start Port

14:30:52 447 08 November 2019  Message :-  Not found device

14:30:56 791 08 November 2019  Message :- get Download paramenter second time 

14:30:56 822 08 November 2019  Message :- second time download

14:30:56 828 08 November 2019  Message :-  Done version

14:30:56 833 08 November 2019  Message :-  start Port

14:30:56 858 08 November 2019  Message :-  Got Port

14:30:56 865 08 November 2019  Message :- start opening port

14:30:56 870 08 November 2019  Message :- port open 

14:30:56 876 08 November 2019  Message :- Done ctor, start event instialize

14:30:56 882 08 November 2019  Message :-  open call

14:30:56 897 08 November 2019  Message :- close hota open kela done 

14:30:56 904 08 November 2019  Message :-  open call end ,  start Port Done in PP3 class

14:30:56 937 08 November 2019  Message :-  sent 1st

14:30:57 145 08 November 2019  Message :-  Got 1

14:30:57 319 08 November 2019  Message :-  started sending Application

14:30:57 362 08 November 2019  Message :- 1st cha response 221

14:30:57 440 08 November 2019  Message :- 2st cha response 221

14:30:57 692 08 November 2019  Message :- Project cha response 221 Completed :) 

14:30:57 729 08 November 2019  Message :- port Exist and it is Closed

14:30:57 735 08 November 2019  Message :- End 100%

14:31:19 970 08 November 2019  Message :- Save call Start

14:31:20 295 08 November 2019  Message :- Start Log.....!!!

14:31:20 301 08 November 2019  Message :- Zip Start AD

14:31:20 394 08 November 2019  Message :- Zip End

14:31:21 704 08 November 2019  Message :- get Download paramenter 1st time

14:31:22 57 08 November 2019  Message :- start vishal task

14:31:22 696 08 November 2019  Message :- end vishal task

14:31:22 721 08 November 2019  Message :- first time download

14:31:22 726 08 November 2019  Message :-  Done version

14:31:22 732 08 November 2019  Message :-  start Port

14:31:22 752 08 November 2019  Message :-  Got Port

14:31:22 757 08 November 2019  Message :- start opening port

14:31:22 761 08 November 2019  Message :- port open 

14:31:22 766 08 November 2019  Message :- Done ctor, start event instialize

14:31:22 771 08 November 2019  Message :-  open call

14:31:22 781 08 November 2019  Message :- close hota open kela done 

14:31:22 787 08 November 2019  Message :-  open call end ,  start Port Done in PP3 class

14:31:22 813 08 November 2019  Message :-  sent 1st

14:31:23 18 08 November 2019  Message :-  Got 1

14:31:23 187 08 November 2019  Message :-  started sending Application

14:31:23 222 08 November 2019  Message :- 1st cha response 221

14:31:23 280 08 November 2019  Message :- 2st cha response 221

14:31:23 488 08 November 2019  Message :- Project cha response 221 Completed :) 

14:31:23 523 08 November 2019  Message :- port Exist and it is Closed

14:31:23 529 08 November 2019  Message :- End 100%

14:31:45 528 08 November 2019  Message :- Save call Start

14:31:45 864 08 November 2019  Message :- Start Log.....!!!

14:31:45 870 08 November 2019  Message :- Zip Start AD

14:31:45 958 08 November 2019  Message :- Zip End

14:31:47 570 08 November 2019  Message :- get Download paramenter 1st time

14:31:47 966 08 November 2019  Message :- start vishal task

14:31:48 598 08 November 2019  Message :- end vishal task

14:31:48 627 08 November 2019  Message :- first time download

14:31:48 632 08 November 2019  Message :-  Done version

14:31:48 636 08 November 2019  Message :-  start Port

14:31:48 656 08 November 2019  Message :-  Got Port

14:31:48 661 08 November 2019  Message :- start opening port

14:31:48 666 08 November 2019  Message :- port open 

14:31:48 671 08 November 2019  Message :- Done ctor, start event instialize

14:31:48 675 08 November 2019  Message :-  open call

14:31:48 687 08 November 2019  Message :- close hota open kela done 

14:31:48 692 08 November 2019  Message :-  open call end ,  start Port Done in PP3 class

14:31:48 721 08 November 2019  Message :-  sent 1st

14:31:48 927 08 November 2019  Message :-  Got 1

14:31:49 69 08 November 2019  Message :-  started sending Application

14:31:49 120 08 November 2019  Message :- 1st cha response 221

14:31:49 190 08 November 2019  Message :- 2st cha response 221

14:31:49 396 08 November 2019  Message :- Project cha response 221 Completed :) 

14:31:49 430 08 November 2019  Message :- port Exist and it is Closed

14:31:49 435 08 November 2019  Message :- End 100%

windowsName : Windows 10 Enterprise
version : 6.3
build : 18362
Product ID : 1814
64 Bit operating system? : Yes
===========================================Start==========================================
Caption : Intel64 Family 6 Model 142 Stepping 9
CreationClassName : Win32_Processor
CurrentClockSpeed : 2600
CurrentVoltage : 6
Manufacturer : GenuineIntel
MaxClockSpeed : 2701
Name : Intel(R) Core(TM) i5-7200U CPU @ 2.50GHz
NumberOfCores : 2
NumberOfLogicalProcessors : 4
PowerManagementSupported : False
Status : OK
=========================================END============================================

14:53:21 209 08 November 2019  Message :- Start Log.....!!!

14:53:22 686 08 November 2019  Message :- Save call Start

14:53:22 969 08 November 2019  Message :- Start Log.....!!!

14:53:22 976 08 November 2019  Message :- Zip Start AD

14:53:23 156 08 November 2019  Message :- Zip End

14:53:24 800 08 November 2019  Message :- get Download paramenter 1st time

14:53:25 201 08 November 2019  Message :- start vishal task

14:53:26 406 08 November 2019  Message :- end vishal task

14:53:26 431 08 November 2019  Message :- first time download

14:53:26 438 08 November 2019  Message :-  Done version

14:53:26 442 08 November 2019  Message :-  start Port

14:53:26 468 08 November 2019  Message :-  Got Port

14:53:26 475 08 November 2019  Message :- start opening port

14:53:26 481 08 November 2019  Message :- port open 

14:53:26 486 08 November 2019  Message :- Done ctor, start event instialize

14:53:26 492 08 November 2019  Message :-  open call

14:53:26 508 08 November 2019  Message :- close hota open kela done 

14:53:26 514 08 November 2019  Message :-  open call end ,  start Port Done in PP3 class

14:53:26 549 08 November 2019  Message :-  sent 1st

14:53:29 826 08 November 2019  Message :- port ReadData exception  :    konum: System.IO.Ports.SerialStream.Read(Byte[] array, Int32 offset, Int32 count, Int32 timeout)
   konum: System.IO.Ports.SerialStream.Read(Byte[] array, Int32 offset, Int32 count)
   konum: System.IO.Ports.SerialPort.Read(Byte[] buffer, Int32 offset, Int32 count)
   konum: ClassList.USBSerialQT.ReadData() e:\Installation\FP Solution V2.37 (Turkey)\CORECLASSES\USBSerialQT.cs içinde: satır 1329 Message : System.TimeoutException: İşlem zaman aşımına uğradı.
   konum: System.IO.Ports.SerialStream.Read(Byte[] array, Int32 offset, Int32 count, Int32 timeout)
   konum: System.IO.Ports.SerialStream.Read(Byte[] array, Int32 offset, Int32 count)
   konum: System.IO.Ports.SerialPort.Read(Byte[] buffer, Int32 offset, Int32 count)
   konum: ClassList.USBSerialQT.ReadData() e:\Installation\FP Solution V2.37 (Turkey)\CORECLASSES\USBSerialQT.cs içinde: satır 1329

14:53:29 883 08 November 2019  Message :-  Got SomthingElse

14:53:29 939 08 November 2019  Message :- port Exist and it is Closed

14:53:32 894 08 November 2019  Message :- get Download paramenter second time 

14:53:32 922 08 November 2019  Message :- second time download

14:53:32 927 08 November 2019  Message :-  Done version

14:53:32 932 08 November 2019  Message :-  start Port

14:53:32 954 08 November 2019  Message :-  Got Port

14:53:32 959 08 November 2019  Message :- start opening port

14:53:32 964 08 November 2019  Message :- port open 

14:53:32 969 08 November 2019  Message :- Done ctor, start event instialize

14:53:32 974 08 November 2019  Message :-  open call

14:53:32 983 08 November 2019  Message :- close hota open kela done 

14:53:32 988 08 November 2019  Message :-  open call end ,  start Port Done in PP3 class

14:53:33 15 08 November 2019  Message :-  sent 1st

14:53:36 222 08 November 2019  Message :- port ReadData exception  :    konum: System.IO.Ports.SerialStream.Read(Byte[] array, Int32 offset, Int32 count, Int32 timeout)
   konum: System.IO.Ports.SerialStream.Read(Byte[] array, Int32 offset, Int32 count)
   konum: System.IO.Ports.SerialPort.Read(Byte[] buffer, Int32 offset, Int32 count)
   konum: ClassList.USBSerialQT.ReadData() e:\Installation\FP Solution V2.37 (Turkey)\CORECLASSES\USBSerialQT.cs içinde: satır 1329 Message : System.TimeoutException: İşlem zaman aşımına uğradı.
   konum: System.IO.Ports.SerialStream.Read(Byte[] array, Int32 offset, Int32 count, Int32 timeout)
   konum: System.IO.Ports.SerialStream.Read(Byte[] array, Int32 offset, Int32 count)
   konum: System.IO.Ports.SerialPort.Read(Byte[] buffer, Int32 offset, Int32 count)
   konum: ClassList.USBSerialQT.ReadData() e:\Installation\FP Solution V2.37 (Turkey)\CORECLASSES\USBSerialQT.cs içinde: satır 1329

14:53:36 287 08 November 2019  Message :-  Got SomthingElse

14:53:36 319 08 November 2019  Message :- port Exist and it is Closed

14:53:39 197 08 November 2019  Message :- get Download paramenter second time 

14:53:39 224 08 November 2019  Message :- second time download

14:53:39 230 08 November 2019  Message :-  Done version

14:53:39 235 08 November 2019  Message :-  start Port

14:53:39 257 08 November 2019  Message :-  Got Port

14:53:39 263 08 November 2019  Message :- start opening port

14:53:39 268 08 November 2019  Message :- port open 

14:53:39 273 08 November 2019  Message :- Done ctor, start event instialize

14:53:39 278 08 November 2019  Message :-  open call

14:53:39 289 08 November 2019  Message :- close hota open kela done 

14:53:39 294 08 November 2019  Message :-  open call end ,  start Port Done in PP3 class

14:53:39 324 08 November 2019  Message :-  sent 1st

14:53:42 531 08 November 2019  Message :- port ReadData exception  :    konum: System.IO.Ports.SerialStream.Read(Byte[] array, Int32 offset, Int32 count, Int32 timeout)
   konum: System.IO.Ports.SerialStream.Read(Byte[] array, Int32 offset, Int32 count)
   konum: System.IO.Ports.SerialPort.Read(Byte[] buffer, Int32 offset, Int32 count)
   konum: ClassList.USBSerialQT.ReadData() e:\Installation\FP Solution V2.37 (Turkey)\CORECLASSES\USBSerialQT.cs içinde: satır 1329 Message : System.TimeoutException: İşlem zaman aşımına uğradı.
   konum: System.IO.Ports.SerialStream.Read(Byte[] array, Int32 offset, Int32 count, Int32 timeout)
   konum: System.IO.Ports.SerialStream.Read(Byte[] array, Int32 offset, Int32 count)
   konum: System.IO.Ports.SerialPort.Read(Byte[] buffer, Int32 offset, Int32 count)
   konum: ClassList.USBSerialQT.ReadData() e:\Installation\FP Solution V2.37 (Turkey)\CORECLASSES\USBSerialQT.cs içinde: satır 1329

14:53:42 593 08 November 2019  Message :-  Got SomthingElse

14:53:42 629 08 November 2019  Message :- port Exist and it is Closed

14:54:10 118 08 November 2019  Message :- Save call Start

14:54:10 445 08 November 2019  Message :- Start Log.....!!!

14:54:10 451 08 November 2019  Message :- Zip Start AD

14:54:10 538 08 November 2019  Message :- Zip End

14:54:15 4 08 November 2019  Message :- get Download paramenter 1st time

14:54:15 342 08 November 2019  Message :- start vishal task

14:54:16 34 08 November 2019  Message :- end vishal task

14:54:16 65 08 November 2019  Message :- first time download

14:54:16 70 08 November 2019  Message :-  Done version

14:54:16 75 08 November 2019  Message :-  start Port

14:54:16 98 08 November 2019  Message :-  Got Port

14:54:16 104 08 November 2019  Message :- start opening port

14:54:16 109 08 November 2019  Message :- port open 

14:54:16 117 08 November 2019  Message :- Done ctor, start event instialize

14:54:16 123 08 November 2019  Message :-  open call

14:54:16 136 08 November 2019  Message :- close hota open kela done 

14:54:16 142 08 November 2019  Message :-  open call end ,  start Port Done in PP3 class

14:54:16 233 08 November 2019  Message :-  sent 1st

14:54:16 443 08 November 2019  Message :-  Got 1

14:54:16 597 08 November 2019  Message :-  started sending Application

14:54:16 635 08 November 2019  Message :- 1st cha response 221

14:54:16 714 08 November 2019  Message :- 2st cha response 221

14:54:16 980 08 November 2019  Message :- Project cha response 221 Completed :) 

14:54:17 69 08 November 2019  Message :- port Exist and it is Closed

14:54:17 80 08 November 2019  Message :- End 100%

14:54:22 715 08 November 2019  Message :- Start Log.....!!!

14:57:30 884 08 November 2019  Message :- Start Log.....!!!

14:57:31 971 08 November 2019  Message :- Save call Start

14:57:32 309 08 November 2019  Message :- Start Log.....!!!

14:57:32 315 08 November 2019  Message :- Zip Start AD

14:57:32 402 08 November 2019  Message :- Zip End

14:57:34 329 08 November 2019  Message :- get Download paramenter 1st time

14:57:34 820 08 November 2019  Message :- start vishal task

14:57:35 556 08 November 2019  Message :- end vishal task

14:57:35 581 08 November 2019  Message :- first time download

14:57:35 589 08 November 2019  Message :-  Done version

14:57:35 596 08 November 2019  Message :-  start Port

14:57:35 619 08 November 2019  Message :-  Got Port

14:57:35 623 08 November 2019  Message :- start opening port

14:57:35 628 08 November 2019  Message :- port open 

14:57:35 633 08 November 2019  Message :- Done ctor, start event instialize

14:57:35 638 08 November 2019  Message :-  open call

14:57:35 649 08 November 2019  Message :- close hota open kela done 

14:57:35 654 08 November 2019  Message :-  open call end ,  start Port Done in PP3 class

14:57:35 683 08 November 2019  Message :-  sent 1st

14:57:35 889 08 November 2019  Message :-  Got 1

14:57:36 39 08 November 2019  Message :-  started sending Application

14:57:36 62 08 November 2019  Message :- 1st cha response 221

14:57:36 129 08 November 2019  Message :- 2st cha response 221

14:57:36 393 08 November 2019  Message :- Project cha response 221 Completed :) 

14:57:36 439 08 November 2019  Message :- port Exist and it is Closed

14:57:36 445 08 November 2019  Message :- End 100%

14:58:04 430 08 November 2019  Message :- Start Log.....!!!
